Weather History for O'Neill, NE

Change the Weather History Date:

Sunday, February 3, 2013

  Actual Average Record
Temperature  
Mean Temperature 38 °F -  
Max Temperature 57 °F 32 °F 72 °F (1962)
Min Temperature 20 °F 10 °F -22 °F (1989)
Degree Days  
Heating Degree Days 26    
Moisture  
Dew Point 24 °F    
Average Humidity 61    
Maximum Humidity 93    
Minimum Humidity 25    
Precipitation  
Precipitation 0.00 in - - ()
Sea Level Pressure  
Sea Level Pressure 29.95 in    
Wind  
Wind Speed 11 mph (WSW)    
Max Wind Speed 23 mph    
Max Gust Speed 31 mph    
Visibility 10 miles    
Events      
Averages and records for this station are not official NWS values.
T = Trace of Precipitation, MM = Missing Value Source: NWS Daily Summary

Daily Weather History Graph

Daily Weather History Graph

Search for Another Location

Airport:

Trip Planner

Search our weather history database for the weather conditions in past years. The results will help you decide how hot, cold, wet, or windy it might be!

Date:

Astronomy

Feb. 03, 2013 Rise Set
Actual Time 7:46 AM CST 5:51 PM CST
Civil Twilight 7:16 AM CST 6:21 PM CST
Nautical Twilight 6:42 AM CST 6:54 PM CST
Astronomical Twilight 6:10 AM CST 7:27 PM CST
Moon 1:15 AM CST (2/3) 11:29 AM CST (2/3)
Length of Visible Light 11h 04m
Length of Day
10h 05m
Waning Gibbous, 48% of the Moon is Illuminated
Feb 3
Waning Gibbous
Feb 10
New
Feb 17
First Quarter
Feb 25
Full
Mar 4
Last Quarter

Hourly Weather History & Observations

Time (CST) Temp. Windchill Dew Point Humidity Pressure Visibility Wind Dir Wind Speed Gust Speed Precip Events Conditions
12:15 AM 30.7 °F 20.4 °F 25.9 °F 82% 30.18 in 10.0 mi NNW 13.8 mph - N/A   Clear
12:35 AM 30.2 °F 20.8 °F 25.7 °F 83% 30.19 in 10.0 mi NNW 11.5 mph - N/A   Clear
12:55 AM 29.1 °F 20.0 °F 25.3 °F 86% 30.19 in 10.0 mi NNW 10.4 mph - N/A   Clear
1:15 AM 29.1 °F 21.3 °F 25.0 °F 85% 30.21 in 10.0 mi NNW 8.1 mph - N/A   Clear
1:35 AM 28.2 °F 20.2 °F 24.3 °F 85% 30.21 in 10.0 mi NW 8.1 mph - N/A   Clear
1:55 AM 27.9 °F 18.4 °F 24.3 °F 86% 30.21 in 10.0 mi WNW 10.4 mph - N/A   Clear
2:15 AM 27.3 °F 19.1 °F 23.9 °F 87% 30.21 in 10.0 mi West 8.1 mph - N/A   Clear
2:35 AM 26.8 °F 19.3 °F 23.5 °F 88% 30.20 in 10.0 mi WNW 6.9 mph - N/A   Clear
2:55 AM 26.4 °F 19.8 °F 23.4 °F 88% 30.18 in 10.0 mi NW 5.8 mph - N/A   Clear
3:15 AM 25.5 °F 18.7 °F 22.8 °F 89% 30.18 in 10.0 mi WNW 5.8 mph - N/A   Clear
3:35 AM 24.8 °F 19.1 °F 22.1 °F 89% 30.17 in 10.0 mi NW 4.6 mph - N/A   Scattered Clouds
3:55 AM 24.8 °F 20.5 °F 21.9 °F 89% 30.16 in 10.0 mi West 3.5 mph - N/A   Mostly Cloudy
4:15 AM 23.0 °F 14.7 °F 20.7 °F 91% 30.15 in 10.0 mi West 6.9 mph - N/A   Scattered Clouds
4:35 AM 23.0 °F 18.4 °F 21.0 °F 92% 30.14 in 10.0 mi West 3.5 mph - N/A   Clear
4:55 AM 23.9 °F - 21.9 °F 92% 30.14 in 10.0 mi Calm Calm - N/A   Mostly Cloudy
5:15 AM 22.8 °F 16.7 °F 20.8 °F 92% 30.14 in 10.0 mi SSW 4.6 mph - N/A   Mostly Cloudy
5:35 AM 21.2 °F - 19.2 °F 92% 30.13 in 10.0 mi Calm Calm - N/A   Scattered Clouds
5:55 AM 21.0 °F 13.4 °F 18.9 °F 91% 30.13 in 10.0 mi SW 5.8 mph - N/A   Scattered Clouds
6:15 AM 20.3 °F 12.5 °F 18.5 °F 93% 30.12 in 10.0 mi SSW 5.8 mph - N/A   Clear
6:35 AM 20.5 °F 12.8 °F 18.3 °F 91% 30.12 in 10.0 mi SW 5.8 mph - N/A   Clear
6:55 AM 20.3 °F 13.8 °F 18.3 °F 92% 30.11 in 10.0 mi SW 4.6 mph - N/A   Clear
7:15 AM 20.7 °F 14.2 °F 18.3 °F 91% 30.11 in 10.0 mi SSW 4.6 mph - N/A   Clear
7:35 AM 21.4 °F 11.9 °F 18.9 °F 90% 30.10 in 10.0 mi SSW 8.1 mph - N/A   Clear
7:55 AM 22.1 °F 12.8 °F 19.6 °F 90% 30.09 in 10.0 mi SSW 8.1 mph - N/A   Clear
8:15 AM 23.5 °F 15.4 °F 20.7 °F 89% 30.08 in 10.0 mi SSW 6.9 mph - N/A   Clear
8:35 AM 26.1 °F 17.6 °F 22.6 °F 87% 30.07 in 10.0 mi SSW 8.1 mph - N/A   Clear
8:55 AM 27.9 °F 19.1 °F 24.1 °F 86% 30.06 in 10.0 mi South 9.2 mph - N/A   Clear
9:15 AM 29.7 °F 20.1 °F 25.3 °F 84% 30.04 in 10.0 mi SSW 11.5 mph - N/A   Clear
9:35 AM 31.1 °F 20.5 °F 25.9 °F 81% 30.02 in 10.0 mi SSW 15.0 mph - N/A   Clear
9:55 AM 32.5 °F 23.7 °F 27.5 °F 82% 30.00 in 10.0 mi SSW 11.5 mph - N/A   Clear
10:15 AM 36.9 °F 29.1 °F 29.8 °F 76% 30.00 in 10.0 mi SSW 11.5 mph - N/A   Clear
10:35 AM 42.1 °F 36.1 °F 30.0 °F 62% 29.99 in 10.0 mi SW 10.4 mph - N/A   Clear
10:55 AM 45.0 °F 38.5 °F 29.3 °F 54% 29.98 in 10.0 mi WSW 13.8 mph 18.4 mph N/A   Clear
11:15 AM 47.8 °F - 28.4 °F 47% 29.97 in 10.0 mi WSW 16.1 mph - N/A   Clear
11:35 AM 50.9 °F - 27.3 °F 40% 29.95 in 10.0 mi WSW 15.0 mph 18.4 mph N/A   Clear
11:55 AM 53.6 °F - 24.4 °F 32% 29.93 in 10.0 mi WSW 23.0 mph 27.6 mph N/A   Clear
12:15 PM 53.6 °F - 24.1 °F 32% 29.92 in 10.0 mi WSW 21.9 mph 31.1 mph N/A   Clear
12:35 PM 53.6 °F - 24.3 °F 32% 29.91 in 10.0 mi WSW 19.6 mph 29.9 mph N/A   Clear
12:55 PM 53.4 °F - 24.4 °F 33% 29.90 in 10.0 mi WSW 18.4 mph 25.3 mph N/A   Clear
1:15 PM 53.8 °F - 23.9 °F 31% 29.88 in 10.0 mi WSW 19.6 mph 26.5 mph N/A   Clear
1:35 PM 55.4 °F - 23.4 °F 29% 29.87 in 10.0 mi WSW 19.6 mph 28.8 mph N/A   Clear
1:55 PM 56.1 °F - 23.2 °F 28% 29.85 in 10.0 mi WSW 20.7 mph 27.6 mph N/A   Clear
2:15 PM 56.8 °F - 22.8 °F 27% 29.83 in 10.0 mi SW 19.6 mph 29.9 mph N/A   Clear
2:35 PM 57.0 °F - 21.7 °F 26% 29.81 in 10.0 mi SW 21.9 mph 29.9 mph N/A   Clear
2:55 PM 56.8 °F - 22.1 °F 26% 29.81 in 10.0 mi SW 23.0 mph 31.1 mph N/A   Clear
3:15 PM 57.0 °F - 21.6 °F 25% 29.81 in 10.0 mi SW 17.3 mph 26.5 mph N/A   Clear
3:35 PM 57.4 °F - 21.9 °F 25% 29.79 in 10.0 mi SW 19.6 mph 25.3 mph N/A   Clear
3:55 PM 57.2 °F - 21.7 °F 25% 29.79 in 10.0 mi WSW 15.0 mph 24.2 mph N/A   Clear
4:15 PM 55.9 °F - 21.2 °F 26% 29.79 in 10.0 mi WSW 12.7 mph 21.9 mph N/A   Clear
4:35 PM 55.0 °F - 21.4 °F 27% 29.78 in 10.0 mi WSW 16.1 mph 23.0 mph N/A   Clear
4:55 PM 54.0 °F - 21.6 °F 28% 29.78 in 10.0 mi WSW 12.7 mph - N/A   Clear
5:15 PM 52.7 °F - 21.9 °F 30% 29.78 in 10.0 mi WSW 10.4 mph 18.4 mph N/A   Clear
5:35 PM 51.8 °F - 21.9 °F 31% 29.78 in 10.0 mi SW 11.5 mph - N/A   Clear
5:55 PM 50.2 °F - 22.1 °F 33% 29.78 in 10.0 mi WSW 9.2 mph - N/A   Clear
6:15 PM 48.4 °F - 22.6 °F 36% 29.78 in 10.0 mi WSW 9.2 mph - N/A   Clear
6:35 PM 46.4 °F 42.4 °F 23.2 °F 40% 29.78 in 10.0 mi WSW 8.1 mph - N/A   Clear
6:55 PM 45.0 °F 41.2 °F 23.5 °F 43% 29.78 in 10.0 mi WSW 6.9 mph - N/A   Clear
7:15 PM 43.5 °F 38.3 °F 23.9 °F 46% 29.78 in 10.0 mi WSW 9.2 mph - N/A   Clear
7:35 PM 43.2 °F 37.9 °F 23.9 °F 47% 29.78 in 10.0 mi WSW 9.2 mph - N/A   Clear
7:55 PM 42.1 °F 36.1 °F 23.9 °F 49% 29.77 in 10.0 mi WSW 10.4 mph - N/A   Clear
8:15 PM 40.5 °F 34.6 °F 23.9 °F 52% 29.77 in 10.0 mi WSW 9.2 mph - N/A   Clear
8:35 PM 39.6 °F 34.0 °F 23.9 °F 54% 29.76 in 10.0 mi WSW 8.1 mph - N/A   Clear
8:55 PM 39.2 °F 33.6 °F 24.3 °F 55% 29.76 in 10.0 mi WSW 8.1 mph - N/A   Clear
9:15 PM 40.1 °F 34.7 °F 24.6 °F 54% 29.76 in 10.0 mi West 8.1 mph - N/A   Clear
9:35 PM 40.1 °F 33.6 °F 25.2 °F 55% 29.76 in 10.0 mi West 10.4 mph - N/A   Clear
9:55 PM 39.2 °F 32.5 °F 25.3 °F 58% 29.76 in 10.0 mi West 10.4 mph - N/A   Clear
10:15 PM 39.7 °F 32.7 °F 26.1 °F 58% 29.78 in 10.0 mi West 11.5 mph - N/A   Clear
10:35 PM 42.1 °F 34.2 °F 26.6 °F 54% 29.78 in 10.0 mi NW 16.1 mph - N/A   Clear
10:55 PM 41.2 °F 33.4 °F 27.1 °F 57% 29.78 in 10.0 mi NW 15.0 mph - N/A   Scattered Clouds
11:15 PM 40.3 °F 32.2 °F 27.3 °F 60% 29.79 in 10.0 mi WNW 15.0 mph - N/A   Clear
11:35 PM 41.0 °F 33.1 °F 27.5 °F 59% 29.79 in 10.0 mi WNW 15.0 mph - N/A   Scattered Clouds
11:55 PM 40.1 °F 31.3 °F 27.5 °F 61% 29.80 in 10.0 mi NW 17.3 mph - N/A   Scattered Clouds